Location: Lugrin
(46.4033°N, 6.6674°E)
Time: 15:44:54
(UTC+00:00)

Cosmos 1939 Rocket - Pass Details

Date: 18 September 2020
Orbit: 531 x 586 km, 97.4° (Epoch: 24 October)

Event Time Altitude Azimuth Distance (km) Brightness Sun altitude
Rises 18:06:11 0° 179° (S) 2,781 6.3 -5.6°
Reaches altitude 10° 18:08:23 10° 185° (S) 1,893 5.5 -6.0°
Maximum altitude 18:12:22 49° 261° (W) 760 4.1 -6.7°
Drops below altitude 10° 18:16:25 10° 337° (NNW) 1,920 6.1 -7.4°
Sets 18:18:40 0° 343° (NNW) 2,825 6.8 -7.7°
